AJ5TT Weather Reports


time (UTC)temp
C
wind
direction
speed
KPH
gust
KPH
rain 1hr
cm
rain 24hr
cm
rain mn
cm
humidity
%
barometer
mb
20260906013105 28 0 0.0 0.0 0.00 0.38 0.38 83 1012.4
20260906011604 28 0 0.0 1.6 0.00 0.38 0.38 83 1012.3
20260906010109 28 0 0.0 3.2 0.00 0.38 0.38 82 1012.3
20260906004604 28 0 0.0 3.2 0.00 0.38 0.38 81 1012.4
20260906003053 28 0 0.0 1.6 0.00 0.38 0.38 80 1012.4
20260906001617 29 0 0.0 3.2 0.00 0.38 0.38 80 1012.7
20260906000106 29 0 0.0 3.2 0.00 0.38 0.38 79 1012.9
20260905234558 29 0 0.0 3.2 0.00 0.38 0.38 78 1012.9
20260905233113 30 178 0.0 4.8 0.00 0.38 0.38 77 1012.8
20260905231608 30 175 1.6 3.2 0.00 0.38 0.38 76 1012.6
20260905230111 30 38 1.6 4.8 0.00 0.38 0.38 74 1012.6
20260905224601 30 122 0.0 6.4 0.00 0.38 0.38 74 1012.5
20260905223105 31 291 0.0 3.2 0.00 0.38 0.38 73 1012.5
20260905221603 31 111 0.0 6.4 0.00 0.38 0.38 72 1012.4
20260905220105 31 196 1.6 4.8 0.00 0.38 0.38 68 1012.3
20260905214558 32 217 1.6 4.8 0.00 0.38 0.38 65 1012.5
20260905213110 32 9 1.6 3.2 0.00 0.38 0.38 66 1012.6
20260905211601 32 214 1.6 8.0 0.00 0.38 0.38 64 1012.7
20260905210109 32 159 1.6 6.4 0.00 0.38 0.38 65 1012.7
20260905204605 32 152 1.6 4.8 0.00 0.38 0.38 65 1012.7
20260905203058 32 232 1.6 3.2 0.00 0.38 0.38 66 1012.9
20260905201610 32 199 1.6 4.8 0.00 0.38 0.38 65 1013.0
20260905200147 31 334 0.0 3.2 0.00 0.38 0.38 70 1013.0
20260905194612 31 276 0.0 3.2 0.00 0.38 0.38 70 1013.2
20260905193101 30 91 0.0 4.8 0.00 0.38 0.38 70 1013.3
20260905191605 30 44 0.0 3.2 0.00 0.38 0.38 71 1013.7
20260905184612 30 205 0.0 3.2 0.00 0.38 0.38 77 1014.1
20260905183112 28 81 0.0 3.2 0.05 0.38 0.38 79 1014.4
20260905181607 27 0 0.0 3.2 0.28 0.38 0.38 80 1014.4
20260905180116 26 0 0.0 0.0 0.38 0.38 0.38 85 1014.7
20260905174601 26 87 0.0 3.2 0.38 0.38 0.38 86 1015.1
20260905173104 25 171 1.6 8.0 0.33 0.33 0.33 87 1015.3
20260905171607 27 150 3.2 11.3 0.10 0.10 0.10 84 1015.6
20260905170101 27 150 6.4 16.1 0.00 0.00 0.00 75 1015.7
20260905164606 28 10 3.2 9.7 0.00 0.00 0.00 70 1015.5
20260905163109 30 325 6.4 17.7 0.00 0.00 0.00 70 1015.2
20260905161615 31 29 8.0 12.9 0.00 0.00 0.00 67 1015.1
20260905160101 31 346 1.6 6.4 0.00 0.00 0.00 71 1015.0
20260905154606 30 0 0.0 4.8 0.00 0.00 0.00 72 1015.1
20260905153106 30 244 1.6 6.4 0.00 0.00 0.00 73 1015.1
20260905151601 30 23 1.6 4.8 0.00 0.00 0.00 74 1015.1
20260905150106 30 225 1.6 3.2 0.00 0.00 0.00 78 1015.1
20260905144603 29 240 1.6 3.2 0.00 0.00 0.00 80 1015.2
20260905143105 30 0 0.0 4.8 0.00 0.00 0.00 81 1015.1
20260905141603 29 276 1.6 4.8 0.00 0.00 0.00 82 1015.1
20260905140105 28 0 1.6 3.2 0.00 0.00 0.00 84 1014.7
20260905134606 28 0 0.0 0.0 0.00 0.00 0.00 88 1014.7
20260905133056 27 0 0.0 0.0 0.00 0.00 0.00 92 1015.0
20260905131611 26 0 0.0 0.0 0.00 0.00 0.00 94 1014.9
20260905130105 25 0 0.0 0.0 0.00 0.00 0.00 94 1014.7
20260905124601 25 0 0.0 0.0 0.00 0.00 0.00 95 1014.4
20260905123100 25 0 0.0 0.0 0.00 0.00 0.00 94 1014.3
20260905121605 25 0 0.0 0.0 0.00 0.00 0.00 94 1014.3
20260905120104 25 0 0.0 0.0 0.00 0.00 0.00 94 1014.0
20260905114612 24 0 0.0 0.0 0.00 0.00 0.00 94 1013.8
20260905113109 25 0 0.0 0.0 0.00 0.00 0.00 94 1013.7
20260905111615 25 0 0.0 0.0 0.00 0.00 0.00 94 1013.6
20260905110104 25 0 0.0 0.0 0.00 0.00 0.00 94 1013.4
20260905104559 25 0 0.0 0.0 0.00 0.00 0.00 94 1013.3
20260905103104 25 0 0.0 0.0 0.00 0.00 0.00 94 1013.3
20260905101600 25 0 0.0 0.0 0.00 0.00 0.00 94 1013.3
20260905100108 25 0 0.0 0.0 0.00 0.00 0.00 94 1013.6
20260905094612 25 0 0.0 0.0 0.00 0.00 0.00 94 1013.4
20260905093103 25 0 0.0 0.0 0.00 0.00 0.00 94 1013.4
20260905091607 25 0 0.0 0.0 0.00 0.00 0.00 93 1013.4
20260905090054 25 0 0.0 0.0 0.00 0.00 0.00 94 1013.4
20260905084609 25 0 0.0 0.0 0.00 0.00 0.00 93 1013.2
20260905083103 25 0 0.0 0.0 0.00 0.00 0.00 93 1013.2
20260905081616 25 0 0.0 0.0 0.00 0.00 0.00 93 1013.2
20260905080100 25 0 0.0 0.0 0.00 0.00 0.00 93 1013.2
20260905074605 25 0 0.0 0.0 0.00 0.00 0.00 92 1013.3
20260905073104 25 0 0.0 0.0 0.00 0.00 0.00 92 1013.3
20260905071604 25 0 0.0 0.0 0.00 0.00 0.00 92 1013.6
20260905070100 26 0 0.0 0.0 0.00 0.00 0.00 91 1013.6
20260905064604 26 0 0.0 0.0 0.00 0.00 0.00 92 1013.7
20260905063118 26 0 0.0 0.0 0.00 0.00 0.00 91 1014.0
20260905061613 26 0 0.0 0.0 0.00 0.00 0.00 91 1014.0
20260905060057 26 0 0.0 0.0 0.00 0.00 0.00 91 1014.0
20260905054606 26 0 0.0 0.0 0.00 0.00 0.00 90 1014.0
20260905053103 26 0 0.0 0.0 0.00 0.00 0.00 89 1014.1
20260905051601 27 0 0.0 0.0 0.00 0.00 0.00 88 1014.1
20260905050105 27 0 0.0 0.0 0.00 0.00 0.00 87 1014.0
20260905044607 27 0 0.0 0.0 0.00 0.00 0.00 87 1014.0
20260905043130 27 0 0.0 3.2 0.00 0.00 0.00 87 1013.9
20260905041602 27 0 0.0 4.8 0.00 0.00 0.00 86 1014.1
20260905040118 27 0 0.0 3.2 0.00 0.00 0.00 86 1014.3
20260905034606 27 0 0.0 3.2 0.00 0.00 0.00 85 1014.4
20260905033103 27 0 0.0 3.2 0.00 0.00 0.00 85 1014.3
20260905031604 27 163 0.0 0.0 0.00 0.00 0.00 84 1014.2
20260905030106 28 0 0.0 0.0 0.00 0.00 0.00 84 1014.4
20260905024605 28 0 0.0 0.0 0.00 0.00 0.00 83 1014.5
20260905023106 28 0 0.0 0.0 0.00 0.00 0.00 83 1014.4
20260905021605 28 0 0.0 0.0 0.00 0.00 0.00 83 1014.2
20260905020106 28 0 0.0 0.0 0.00 0.00 0.00 81 1013.9
20260905014605 28 161 1.6 3.2 0.00 0.00 0.00 80 1013.9